Temperature
6 6 6 6 7 7 7 7 7 7 7 8 8 8 8 8 8 9 9 9 9 9 9 9 9 9 9 9 9 9 9 9 9 9 9 9 9 9 9 9 9 10 10
6 6 6 6 6 6 7 6 7 7 7 7 7 8 8 8 8 8 8 8 9 9 9 9 9 9 9 9 9 9 9 9 8 8 8 7 8 9 9 9 9 9 9
5 5 5 5 5 6 6 6 6 6 7 7 7 7 7 7 7 8 8 8 8 8 8 8 8 8 8 8 8 8 8 8 8 8 8 7 8 7 8 9 9 9 9
4 4 4 4 5 5 5 5 6 6 6 6 6 6 7 7 7 7 7 8 8 7 8 8 8 8 8 8 8 8 8 8 8 7 8 7 7 7 7 8 8 8 8
4 4 4 4 4 4 5 5 5 5 6 6 6 6 6 6 6 6 6 7 7 7 7 7 7 7 7 8 8 8 8 7 7 7 7 7 7 7 7 7 7 7 8
3 3 4 4 4 4 4 4 4 5 5 5 5 5 5 6 6 6 6 6 6 6 6 6 7 7 7 7 7 7 7 7 7 7 7 7 7 7 7 6 6 7 7
3 3 3 4 4 4 4 4 4 4 4 5 5 5 5 5 5 5 5 5 5 6 6 6 6 6 6 7 7 7 7 7 7 7 7 7 7 7 7 6 6 6 6
3 3 3 3 3 3 4 4 4 4 4 4 4 4 4 4 4 5 5 5 5 5 5 5 6 6 6 6 6 6 6 6 6 6 6 6 6 6 6 6 6 5 5
3 2 3 3 3 3 3 3 3 3 3 4 4 4 4 4 4 4 4 4 4 4 5 5 5 5 5 6 6 6 6 6 6 6 6 6 6 6 6 6 6 6 5
2 2 2 2 3 3 3 3 3 3 3 3 3 3 3 3 4 4 4 4 4 4 4 5 5 5 5 5 5 5 5 6 6 6 6 6 5 6 6 6 6 5 5
2 2 2 2 2 2 2 2 2 2 2 2 3 3 3 3 3 3 4 4 4 4 4 4 4 4 4 5 5 5 5 5 5 5 5 5 5 5 5 5 5 5 5
1 1 1 2 2 2 2 2 2 2 2 2 2 2 2 2 3 3 3 3 3 3 3 3 3 4 4 4 4 5 5 5 5 5 5 5 5 5 5 5 5 5 5
1 1 1 1 1 1 1 1 1 1 1 1 1 2 2 2 2 2 2 3 3 3 3 3 3 3 3 4 4 4 4 4 4 4 4 4 4 4 5 5 4 4 4
0 0 1 1 1 1 1 1 1 1 1 1 1 1 1 2 2 2 2 2 2 2 3 3 3 3 3 3 3 3 4 4 4 4 4 4 4 4 4 4 4 4 4
-0 -0 0 0 0 0 0 0 0 1 1 1 1 1 1 1 1 1 2 2 2 2 2 2 2 2 2 3 3 3 3 3 4 4 4 4 4 4 4 4 4 4 3
-1 -1 -1 -0 -0 -0 -0 -0 -0 -0 0 0 0 0 0 1 1 1 1 1 1 2 1 2 2 2 2 2 2 3 3 3 3 3 3 3 3 3 3 3 3 3 3
-1 -1 -1 -1 -1 -1 -1 -1 -1 -1 -0 -0 -0 0 0 0 0 1 1 1 1 1 1 1 1 1 1 2 2 2 2 2 2 3 3 3 3 3 3 3 3 3 3
-1 -1 -1 -1 -1 -1 -1 -1 -1 -1 -1 -1 -1 -1 -0 -0 0 0 0 0 0 0 0 1 1 1 1 1 1 2 2 2 2 2 2 2 2 2 2 2 2 2 2
-2 -2 -2 -2 -2 -2 -2 -2 -2 -2 -2 -1 -1 -1 -1 -1 -0 -0 -0 -0 -0 -0 -0 0 0 0 1 1 1 1 1 1 1 1 1 1 2 2 2 2 2 2 2
-2 -2 -2 -2 -2 -2 -2 -2 -2 -2 -2 -2 -2 -1 -1 -1 -1 -1 -1 -1 -1 -1 -0 -0 -0 0 0 0 0 0 1 1 1 1 1 1 1 1 1 1 1 1 1
-2 -2 -2 -2 -2 -2 -2 -2 -2 -2 -2 -2 -2 -2 -2 -2 -2 -1 -1 -1 -1 -1 -1 -1 -1 -1 -1 -0 -0 -0 -0 -0 -0 0 0 0 1 1 1 1 1 1 1
-3 -3 -3 -3 -3 -3 -3 -3 -3 -3 -3 -2 -2 -2 -2 -2 -2 -2 -2 -2 -2 -1 -1 -1 -1 -1 -1 -1 -1 -1 -1 -1 -1 -0 -0 -0 0 0 0 0 0 1 1
-3 -3 -3 -3 -3 -3 -3 -3 -3 -3 -3 -3 -3 -2 -2 -2 -2 -2 -2 -2 -2 -2 -2 -2 -2 -2 -2 -1 -1 -1 -1 -1 -1 -1 -1 -1 -0 -0 -0 -0 0 0 0
-4 -4 -4 -4 -4 -3 -3 -3 -3 -3 -3 -3 -3 -3 -3 -3 -3 -3 -3 -3 -3 -3 -3 -3 -3 -3 -2 -2 -2 -2 -2 -1 -1 -1 -1 -1 -1 -1 -1 -1 -0 -0 -0
-4 -4 -4 -4 -4 -4 -4 -3 -3 -3 -3 -3 -3 -3 -3 -3 -3 -3 -3 -3 -3 -3 -3 -3 -3 -3 -3 -3 -3 -2 -2 -2 -2 -2 -2 -1 -1 -1 -1 -1 -1 -1 -1
-4 -4 -4 -4 -4 -4 -4 -4 -4 -4 -3 -3 -3 -3 -3 -3 -3 -3 -3 -4 -4 -4 -4 -4 -4 -3 -3 -3 -3 -3 -2 -2 -2 -2 -2 -2 -2 -2 -2 -2 -1 -1 -1
Wind_Speed
7 6 5 4 3 3 2 3 2 2 2 2 3 3 2 2 2 2 3 3 4 4 4 3 4 4 5 6 6 4 5 4 3 2 2 3 5 6 6 5 5 6 6
7 6 4 3 3 2 3 3 3 3 3 3 3 3 3 2 2 2 2 3 4 4 4 4 4 5 5 6 6 5 4 4 4 3 2 3 3 5 6 5 5 6 5
7 6 4 4 3 3 3 3 3 3 3 3 1 1 1 1 2 2 3 3 4 4 4 5 5 5 5 6 7 6 7 5 5 5 3 3 3 2 4 6 6 6 5
6 6 4 4 3 3 3 2 2 3 2 2 2 2 1 2 4 3 3 2 3 4 4 5 5 5 5 6 7 6 6 7 6 5 4 4 3 3 2 3 5 6 6
6 5 4 3 3 2 2 2 3 2 1 1 2 3 2 2 2 2 2 2 2 3 4 5 5 6 6 6 6 6 7 6 6 5 4 4 4 5 4 4 4 5 5
5 5 5 3 3 3 2 2 2 2 2 1 2 3 3 3 2 2 2 2 2 3 4 5 5 6 6 6 7 7 8 7 7 6 6 5 4 5 5 5 5 5 4
4 4 5 4 3 3 3 2 1 2 2 2 2 3 3 4 4 3 3 3 3 3 4 5 5 5 6 6 6 7 7 7 8 7 6 6 6 4 5 4 4 4 3
4 5 5 5 4 3 3 3 2 2 2 2 2 3 3 3 3 4 4 4 3 4 5 4 5 5 5 6 6 6 7 7 7 7 6 5 5 5 5 4 4 4 4
6 5 6 5 4 4 3 3 3 3 3 3 3 3 3 3 3 3 3 3 3 3 4 4 4 4 5 6 6 6 7 6 6 7 7 6 5 5 5 5 5 5 4
6 6 6 6 4 4 4 3 3 3 3 3 3 3 3 3 3 3 3 3 3 3 4 4 4 4 4 5 5 5 6 6 6 5 6 6 5 5 5 5 5 6 5
7 6 6 6 4 3 3 3 3 3 3 3 3 4 3 3 3 3 3 3 3 3 4 4 4 4 5 5 5 6 6 6 6 6 6 7 7 6 5 5 5 5 5
7 6 6 6 5 4 4 4 4 4 3 3 3 4 3 3 3 3 3 3 3 3 4 4 4 4 5 5 5 5 6 6 6 7 6 7 6 7 6 5 6 5 5
8 7 6 6 5 5 4 4 4 4 3 3 3 3 3 3 3 4 4 3 3 3 3 3 4 4 5 5 5 5 5 5 6 6 6 7 7 7 6 6 5 5 4
8 8 7 6 6 5 5 4 4 4 4 3 3 3 4 4 4 4 4 4 3 3 3 4 4 4 4 4 4 4 4 5 5 5 6 6 7 7 7 6 6 5 4
9 8 8 7 7 6 5 5 5 4 4 4 4 4 4 4 4 4 4 4 3 3 3 3 4 4 3 3 4 4 4 4 4 5 5 6 6 7 6 5 5 5 5
8 9 8 8 7 6 6 5 5 5 4 4 4 4 4 4 4 4 4 4 3 3 3 3 3 3 3 4 4 4 4 4 5 5 5 5 5 6 7 7 7 7 6
8 8 8 7 7 7 6 6 5 5 4 4 4 4 3 3 4 4 3 3 4 3 3 3 3 3 3 4 4 4 4 4 4 4 4 3 4 5 5 6 6 6 7
8 8 7 7 7 7 6 5 5 4 4 4 4 4 4 4 4 3 4 4 3 3 3 3 3 3 3 3 3 3 3 3 3 3 4 4 4 4 5 5 5 5 4
8 7 6 6 6 6 6 5 4 4 4 4 4 4 4 4 4 4 4 4 3 3 3 3 3 3 4 3 3 3 3 2 3 3 4 4 4 4 5 5 4 3 2
6 6 5 5 5 6 5 5 4 4 5 5 5 5 4 4 4 4 4 3 3 3 3 3 3 3 4 4 4 3 2 2 2 3 3 3 4 4 4 5 4 4 3
6 5 5 5 5 5 4 4 4 5 5 5 5 5 4 4 4 4 3 3 3 3 3 3 3 3 4 4 4 4 2 2 2 2 2 2 2 2 4 4 4 4 3
5 5 4 5 5 5 4 4 5 5 5 5 5 5 5 4 3 3 3 3 2 2 3 3 3 3 3 4 4 5 4 3 2 3 3 2 1 2 2 2 3 3 3
5 4 4 5 5 5 4 4 5 5 5 4 5 5 5 4 4 3 3 3 3 2 2 2 3 4 4 4 5 5 5 4 3 2 2 2 2 1 1 1 2 2 2
4 3 4 4 4 5 5 4 4 4 4 4 4 4 4 4 4 4 3 3 3 2 2 3 3 3 4 4 4 4 3 4 3 2 2 2 1 0 1 1 1 1 2
3 3 3 3 4 4 4 4 4 4 4 4 4 4 4 4 4 4 4 4 3 3 3 3 3 3 4 5 6 5 4 3 3 3 2 1 1 1 1 1 1 0 1
3 3 3 3 4 4 4 4 4 4 3 3 4 3 3 3 3 3 4 5 4 6 6 5 5 4 5 7 6 6 6 5 4 3 1 1 1 1 0 0 0 0 0
Wind_Direction
298 301 297 291 277 273 279 263 232 229 220 213 222 227 236 249 263 229 201 198 207 205 197 208 209 211 208 202 196 189 188 194 195 221 248 261 250 238 230 225 227 226 226
311 314 315 307 294 278 273 251 236 234 225 222 223 230 238 250 257 226 206 205 205 209 203 205 212 211 207 204 200 196 199 203 200 216 233 248 244 236 230 225 225 230 229
309 308 306 302 299 294 278 253 251 251 237 217 187 208 239 279 282 254 224 213 213 211 212 210 217 212 211 207 208 208 206 204 206 212 218 232 240 272 224 226 226 227 230
316 306 300 303 300 295 284 273 276 262 233 201 197 209 221 247 268 261 241 223 222 219 215 215 223 220 219 216 213 215 218 207 208 211 226 240 252 246 257 232 226 228 234
324 314 314 316 315 311 308 307 300 285 267 221 219 235 236 252 272 274 256 256 235 224 221 220 223 225 223 221 219 220 221 217 218 219 220 227 233 238 243 252 247 236 233
330 331 343 342 338 335 326 317 298 301 310 285 249 246 243 250 260 261 265 266 258 244 228 224 227 229 229 225 223 223 224 223 221 223 221 220 219 223 231 240 248 256 248
332 335 342 341 341 340 333 301 296 305 307 302 270 260 254 244 241 240 238 250 250 256 248 235 233 234 233 231 227 226 226 225 221 221 224 226 230 230 232 235 244 259 271
340 337 333 332 330 332 328 325 312 290 291 291 285 273 269 256 248 244 240 240 246 252 251 246 244 242 241 235 231 229 230 229 223 223 227 229 229 227 229 228 230 246 260
339 335 332 328 329 331 329 322 311 302 298 295 289 277 269 268 264 254 258 256 252 254 252 254 254 257 250 240 234 233 231 231 227 222 221 227 230 229 233 229 225 225 237
334 332 329 324 328 331 329 322 312 311 316 308 295 288 282 280 279 265 258 265 264 263 259 259 260 257 255 251 242 238 234 233 233 228 223 224 226 225 225 224 229 235 236
328 329 328 328 327 331 331 329 325 323 322 320 318 311 310 306 295 281 274 270 269 265 260 257 254 256 255 254 251 244 237 235 236 230 225 226 225 225 223 223 228 232 233
328 330 332 333 334 332 329 325 324 318 318 316 312 321 320 315 307 300 295 280 269 264 260 259 256 254 254 251 251 254 245 237 235 230 227 227 225 228 226 223 227 229 232
330 333 336 337 336 332 326 324 322 313 316 315 313 316 312 312 308 301 293 288 276 273 269 264 261 261 262 259 253 253 249 245 240 236 229 229 226 230 228 227 226 230 234
330 331 331 333 336 336 331 325 320 318 322 319 311 311 312 307 301 296 289 287 283 272 270 269 266 266 264 260 259 259 252 247 245 242 237 234 230 230 229 226 225 227 226
331 332 330 332 336 339 335 333 329 329 332 323 319 315 311 307 302 299 297 293 290 286 276 272 274 275 268 258 265 261 255 250 251 246 239 235 237 238 237 228 218 215 218
326 328 328 329 330 332 332 332 330 329 328 323 318 316 314 312 306 304 302 298 293 296 295 279 276 280 277 286 289 278 263 250 245 245 241 235 235 237 235 233 225 221 219
320 322 321 322 325 326 326 325 322 324 325 320 318 318 316 312 311 309 305 303 302 304 300 299 291 287 287 298 301 290 271 259 252 250 250 241 234 233 234 230 229 236 239
318 319 320 322 323 325 327 324 323 327 325 324 325 325 327 323 317 315 313 310 308 307 301 301 307 301 297 310 318 304 270 266 268 261 255 251 237 227 229 225 227 235 235
312 314 318 317 319 322 325 328 332 334 335 336 332 327 327 326 323 320 316 315 309 309 309 305 305 310 314 323 327 315 273 271 274 267 256 257 248 224 211 211 215 228 245
315 319 323 322 321 325 328 334 338 340 340 336 329 326 327 322 320 318 316 316 319 309 313 321 322 322 324 334 331 320 280 276 278 278 267 261 260 218 201 205 209 221 233
318 320 322 323 324 327 331 334 337 339 335 332 328 328 328 325 324 322 322 327 330 333 336 335 334 332 331 334 338 334 304 278 278 276 274 269 258 229 208 216 220 215 213
319 322 323 326 330 334 336 334 336 336 337 337 335 338 340 340 336 337 338 338 338 340 339 342 342 341 338 339 343 345 336 316 278 278 281 281 286 240 227 226 205 196 205
314 319 320 325 331 336 337 334 333 336 340 344 344 347 348 352 351 350 346 343 346 348 341 342 339 338 339 344 349 347 340 328 308 296 318 325 332 277 224 181 187 205 209
307 315 317 323 331 338 341 338 335 337 342 348 349 352 355 359 0 358 353 350 348 347 340 339 333 331 337 342 344 339 334 335 332 331 347 356 350 349 111 143 178 224 207
304 305 310 317 326 335 340 343 346 351 356 356 355 356 357 357 1 3 360 352 346 339 333 328 323 325 327 334 334 329 326 326 324 326 332 343 341 6 37 41 31 56 143
301 304 313 320 327 336 343 348 352 357 357 356 355 357 358 355 356 356 359 9 0 359 355 348 341 335 336 335 331 332 337 338 333 320 300 303 306 292 293 33 29 47 89
Height
1477 1476 1476 1474 1473 1473 1473 1473 1473 1474 1475 1476 1477 1477 1477 1477 1477 1478 1478 1479 1481 1482 1483 1484 1484 1485 1486 1487 1488 1488 1489 1491 1493 1493 1493 1494 1494 1493 1493 1494 1495 1496 1497
1474 1473 1472 1471 1470 1469 1470 1470 1470 1471 1472 1472 1473 1473 1473 1473 1474 1474 1475 1476 1477 1479 1479 1480 1481 1482 1483 1483 1484 1485 1486 1487 1488 1490 1490 1491 1492 1490 1489 1490 1491 1492 1493
1472 1470 1469 1468 1468 1467 1467 1467 1467 1468 1469 1469 1470 1470 1470 1470 1471 1471 1471 1472 1474 1475 1476 1477 1478 1478 1479 1480 1481 1481 1482 1483 1484 1486 1487 1488 1487 1487 1486 1486 1487 1488 1488
1470 1468 1467 1466 1465 1465 1465 1464 1464 1465 1465 1466 1466 1466 1466 1466 1468 1468 1467 1468 1470 1472 1473 1473 1474 1475 1476 1476 1477 1478 1479 1480 1480 1481 1482 1484 1484 1485 1483 1483 1483 1484 1484
1468 1466 1465 1464 1463 1462 1462 1461 1462 1462 1462 1462 1463 1464 1464 1465 1465 1465 1464 1465 1466 1468 1469 1470 1470 1471 1472 1473 1473 1474 1475 1476 1476 1477 1478 1479 1480 1480 1480 1479 1480 1480 1480
1466 1465 1463 1462 1462 1461 1460 1460 1460 1459 1459 1460 1461 1461 1461 1461 1461 1461 1461 1461 1462 1464 1465 1466 1466 1467 1468 1468 1469 1470 1471 1471 1472 1473 1473 1474 1474 1475 1475 1475 1475 1476 1476
1465 1463 1461 1461 1459 1459 1459 1459 1458 1457 1457 1458 1458 1459 1458 1459 1458 1458 1458 1459 1459 1460 1461 1462 1462 1463 1463 1464 1465 1466 1466 1467 1467 1468 1469 1469 1470 1471 1471 1471 1471 1471 1471
1464 1462 1461 1459 1458 1457 1457 1456 1455 1455 1455 1455 1455 1456 1456 1456 1456 1455 1455 1455 1455 1456 1457 1457 1458 1458 1459 1460 1461 1462 1462 1463 1463 1463 1464 1465 1465 1466 1467 1467 1467 1468 1468
1463 1462 1460 1459 1457 1456 1456 1455 1454 1453 1453 1453 1453 1453 1453 1452 1452 1452 1452 1453 1453 1453 1454 1454 1454 1454 1455 1456 1457 1457 1458 1458 1458 1458 1459 1460 1461 1461 1462 1463 1464 1465 1464
1463 1461 1460 1458 1457 1456 1455 1453 1452 1452 1451 1451 1451 1450 1450 1449 1450 1449 1449 1450 1450 1450 1450 1450 1450 1450 1450 1451 1452 1452 1453 1453 1453 1453 1454 1455 1456 1457 1457 1458 1459 1460 1460
1462 1460 1458 1456 1455 1455 1454 1452 1451 1450 1449 1448 1449 1448 1447 1447 1447 1447 1447 1447 1446 1446 1446 1446 1446 1446 1447 1447 1447 1447 1448 1448 1448 1448 1449 1450 1452 1453 1453 1453 1454 1455 1455
1462 1460 1457 1455 1453 1452 1452 1450 1449 1448 1447 1447 1447 1446 1445 1445 1444 1444 1444 1444 1444 1444 1444 1443 1443 1443 1443 1443 1443 1443 1444 1444 1444 1444 1445 1445 1447 1448 1448 1449 1450 1450 1450
1461 1458 1456 1454 1453 1451 1450 1448 1447 1447 1445 1445 1444 1443 1443 1442 1442 1442 1442 1441 1441 1440 1440 1440 1439 1439 1439 1439 1439 1439 1439 1439 1439 1440 1440 1441 1442 1443 1444 1444 1445 1445 1446
1460 1457 1455 1453 1451 1449 1448 1447 1446 1444 1443 1442 1441 1441 1440 1440 1440 1440 1439 1439 1438 1437 1437 1437 1436 1436 1436 1435 1435 1435 1435 1435 1435 1435 1436 1437 1437 1438 1439 1440 1440 1441 1441
1459 1456 1454 1451 1450 1448 1446 1445 1443 1442 1441 1440 1439 1439 1438 1438 1437 1437 1437 1436 1435 1434 1434 1433 1433 1433 1432 1432 1432 1431 1431 1431 1431 1431 1432 1432 1433 1433 1435 1435 1436 1437 1437
1458 1456 1453 1451 1448 1446 1445 1443 1442 1440 1439 1438 1438 1437 1436 1436 1435 1434 1434 1433 1432 1431 1431 1430 1430 1429 1429 1428 1428 1428 1427 1427 1427 1427 1428 1428 1429 1429 1430 1431 1432 1433 1433
1458 1455 1452 1450 1448 1445 1443 1441 1440 1439 1438 1437 1436 1435 1434 1433 1433 1432 1431 1430 1429 1428 1428 1427 1427 1426 1426 1425 1425 1425 1424 1424 1424 1423 1424 1424 1425 1426 1426 1427 1428 1429 1430
1456 1453 1451 1448 1446 1444 1442 1440 1439 1437 1436 1435 1434 1433 1432 1431 1430 1429 1429 1428 1426 1426 1425 1425 1424 1424 1423 1422 1422 1422 1421 1421 1420 1420 1420 1421 1421 1422 1423 1424 1424 1425 1426
1454 1452 1450 1447 1445 1443 1441 1439 1437 1436 1435 1433 1432 1431 1430 1429 1428 1427 1426 1425 1424 1424 1423 1423 1422 1421 1420 1419 1419 1418 1418 1417 1417 1417 1417 1417 1417 1418 1419 1421 1421 1421 1422
1452 1450 1448 1446 1443 1441 1439 1437 1436 1434 1433 1432 1430 1429 1428 1427 1426 1425 1424 1423 1422 1422 1421 1420 1419 1418 1417 1416 1416 1416 1415 1415 1415 1414 1414 1415 1415 1415 1416 1417 1418 1418 1419
1450 1448 1446 1444 1442 1440 1438 1436 1435 1433 1432 1430 1429 1428 1427 1426 1424 1423 1423 1422 1421 1420 1419 1418 1417 1416 1415 1414 1414 1414 1413 1413 1413 1412 1412 1412 1412 1412 1413 1414 1415 1415 1416
1447 1445 1443 1442 1440 1439 1437 1435 1434 1432 1431 1429 1428 1426 1425 1424 1423 1422 1421 1421 1420 1418 1417 1416 1415 1415 1414 1413 1412 1412 1412 1411 1411 1410 1410 1409 1409 1410 1411 1411 1412 1413 1413
1445 1444 1442 1440 1439 1438 1436 1434 1433 1431 1429 1428 1426 1425 1424 1423 1422 1421 1420 1419 1418 1417 1416 1415 1414 1413 1413 1412 1411 1410 1410 1409 1408 1408 1407 1407 1407 1407 1408 1408 1409 1410 1410
1444 1442 1441 1439 1438 1436 1435 1434 1432 1430 1428 1427 1425 1424 1423 1422 1422 1420 1419 1418 1417 1416 1416 1415 1414 1413 1412 1411 1410 1409 1408 1407 1407 1406 1406 1405 1405 1406 1406 1406 1406 1407 1407
1442 1441 1440 1438 1437 1435 1434 1433 1431 1429 1428 1426 1425 1424 1423 1422 1421 1420 1419 1418 1417 1417 1416 1414 1413 1412 1411 1410 1409 1408 1407 1406 1406 1405 1405 1404 1404 1404 1403 1403 1404 1404 1405
1440 1439 1438 1437 1436 1434 1433 1432 1430 1429 1427 1425 1424 1423 1422 1421 1420 1419 1418 1418 1417 1416 1415 1414 1413 1411 1411 1409 1408 1407 1406 1405 1405 1404 1403 1402 1402 1402 1402 1402 1402 1403 1403